Tracking 28794 objects as of 19-Apr-2024
HD Live streaming from Space Station
objects crossing your sky now

COSMOS 684

Track COSMOS 684 now!
10-day predictions
COSMOS 684 is classified as:


NORAD ID: 7442
Int'l Code: 1974-072H
Perigee: 1,422.1 km
Apogee: 1,473.7 km
Inclination: 74.0 °
Period: 114.7 minutes
Semi major axis: 7818 km
RCS: 0.701 m2 (medium)
Launch date: September 19, 1974
Source: Commonwealth of Independent States (former USSR) (CIS)
Launch site: PLESETSK MISSILE AND SPACE COMPLEX (PKMTR)
Your satellite tracking list
Your tracking list is empty




NASA's NSSDC Master Catalog

Two Line Element Set (TLE):
1 07442U 74072H   24110.29728138 -.00000006  00000-0  61999-4 0  9990
2 07442  74.0380  42.4077 0032989 299.6471 229.7522 12.55701343272713
Source of the keplerian elements: AFSPC